Location: Toronto
(43.6672°N, 79.4170°W)
Time: 11:31:42
(UTC-04:00)

ISS - All Passes

Search period start: 21 April 2014 00:00
Search period end: 01 May 2014 00:00
Orbit: 414 x 419 km, 51.6° (Epoch: 21 April)

Date Brightness Start Highest point End Pass type
(mag) Time Alt. Az. Time Alt. Az. Time Alt. Az.
21 Apr - 14:13:23 10° SSE 14:15:01 13° SE 14:16:39 10° ESE daylight
21 Apr - 15:47:58 10° WSW 15:51:18 86° NNW 15:54:40 10° ENE daylight
21 Apr - 17:25:33 10° WNW 17:28:24 25° NNW 17:31:14 10° NE daylight
21 Apr - 19:03:13 10° NW 19:05:54 22° N 19:08:35 10° ENE daylight
21 Apr - 20:39:52 10° NW 20:43:10 52° NNE 20:46:27 10° ESE visible
21 Apr - 22:16:58 10° W 22:19:43 23° SW 22:22:26 10° S visible
22 Apr - 14:59:29 10° SW 15:02:45 57° SE 15:06:03 10° ENE daylight
22 Apr - 16:36:38 10° W 16:39:39 30° NNW 16:42:41 10° NE daylight
22 Apr - 18:14:30 10° NW 18:17:06 20° N 18:19:42 10° NE daylight
22 Apr - 19:51:20 10° NW 19:54:29 37° NNE 19:57:38 10° E daylight
22 Apr - 21:28:05 10° WNW 21:31:15 39° SW 21:34:23 10° SSE visible
23 Apr - 14:11:10 10° SSW 14:14:12 33° SE 14:17:15 10° ENE daylight
23 Apr - 15:47:42 10° W 15:50:53 40° NNW 15:54:05 10° NE daylight
23 Apr - 17:25:38 10° NW 17:28:14 21° N 17:30:51 10° NE daylight
23 Apr - 19:02:44 10° NW 19:05:42 28° NNE 19:08:40 10° E daylight
23 Apr - 20:39:19 10° WNW 20:42:39 67° SW 20:45:58 10° SE visible
24 Apr - 13:23:08 10° S 13:25:39 20° SE 13:28:10 10° E daylight
24 Apr - 14:58:48 10° WSW 15:02:06 59° NNW 15:05:26 10° NE daylight
24 Apr - 16:36:37 10° WNW 16:39:19 22° N 16:42:02 10° NE daylight
24 Apr - 18:14:02 10° NW 18:16:49 24° NNE 18:19:36 10° ENE daylight
24 Apr - 19:50:35 10° NW 19:53:57 75° NNE 19:57:17 10° ESE daylight
24 Apr - 21:28:15 10° W 21:30:17 15° SW 21:32:19 10° S visible
25 Apr - 12:35:47 10° SSE 12:37:05 12° SE 12:38:23 10° ESE daylight
25 Apr - 14:09:59 10° SW 14:13:19 87° SSE 14:16:40 10° ENE daylight
25 Apr - 15:47:30 10° WNW 15:50:22 25° NNW 15:53:13 10° NE daylight
25 Apr - 17:25:12 10° NW 17:27:50 21° N 17:30:29 10° ENE daylight
25 Apr - 19:01:51 10° NW 19:05:07 49° NNE 19:08:22 10° ESE daylight
25 Apr - 20:38:51 10° W 20:41:41 25° SW 20:44:29 10° SSE visible
26 Apr - 13:21:17 10° SW 13:24:31 51° SE 13:27:47 10° ENE daylight
26 Apr - 14:58:20 10° W 15:01:22 32° NNW 15:04:25 10° NE daylight
26 Apr - 16:36:12 10° NW 16:38:47 20° N 16:41:22 10° NE daylight
26 Apr - 18:13:03 10° NW 18:16:10 35° NNE 18:19:17 10° E daylight
26 Apr - 19:49:45 10° WNW 19:52:57 43° SW 19:56:07 10° SSE daylight
27 Apr - 12:32:47 10° SSW 12:35:44 30° SE 12:38:42 10° ENE daylight
27 Apr - 14:09:09 10° W 14:12:21 43° NNW 14:15:34 10° NE daylight
27 Apr - 15:47:03 10° NW 15:49:40 21° N 15:52:16 10° NE daylight
27 Apr - 17:24:12 10° NW 17:27:07 27° NNE 17:30:02 10° ENE daylight
27 Apr - 19:00:45 10° WNW 19:04:05 74° SW 19:07:25 10° SE daylight
28 Apr - 11:44:36 10° S 11:46:56 18° SE 11:49:17 10° E daylight
28 Apr - 13:20:01 10° WSW 13:23:20 65° NNW 13:26:39 10° NE daylight
28 Apr - 14:57:46 10° WNW 15:00:30 23° N 15:03:13 10° NE daylight
28 Apr - 16:35:14 10° NW 16:37:58 23° N 16:40:43 10° ENE daylight
28 Apr - 18:11:46 10° NW 18:15:07 68° NNE 18:18:26 10° ESE daylight
28 Apr - 19:49:14 10° W 19:51:29 17° SW 19:53:43 10° S daylight
29 Apr - 10:57:29 10° SE 10:58:08 10° SE 10:58:46 10° ESE daylight
29 Apr - 12:30:59 10° SW 12:34:18 79° SE 12:37:38 10° ENE daylight
29 Apr - 14:08:23 10° WNW 14:11:17 26° NNW 14:14:11 10° NE daylight
29 Apr - 15:46:07 10° NW 15:48:44 21° N 15:51:21 10° ENE daylight
29 Apr - 17:22:47 10° NW 17:26:01 45° NNE 17:29:14 10° E daylight
29 Apr - 18:59:41 10° WNW 19:02:36 28° SW 19:05:31 10° SSE daylight
30 Apr - 11:42:04 10° SW 11:45:16 45° SE 11:48:28 10° ENE daylight
30 Apr - 13:18:58 10° W 13:22:02 33° NNW 13:25:07 10° NE daylight
30 Apr - 14:56:51 10° NW 14:59:25 20° N 15:01:59 10° NE daylight
30 Apr - 16:33:45 10° NW 16:36:48 32° NNE 16:39:52 10° E daylight
30 Apr - 18:10:22 10° WNW 18:13:36 48° SW 18:16:50 10° SE daylight
